Time,TemperatureF,DewpointF,PressureIn,WindDirection,WindDirectionDegrees,WindSpeedMPH,WindSpeedGustMPH,Humidity,HourlyPrecipIn,Conditions,Clouds,dailyrainin,SoftwareType,DateUTC
2013-08-08 00:02:00,59.0,52.0,30.08,SSE,164,10.0,10.0,77,0.00,,,0.00,,2013-08-08 05:02:00,
2013-08-08 00:11:00,58.0,51.0,30.08,SSE,164,10.0,10.0,77,0.00,,,0.00,,2013-08-08 05:11:00,
2013-08-08 00:22:00,58.0,51.0,30.08,SSE,164,10.0,10.0,78,0.00,,,0.00,,2013-08-08 05:22:00,
2013-08-08 00:33:00,58.0,51.0,30.08,SSE,164,10.0,10.0,77,0.00,,,0.00,,2013-08-08 05:33:00,
2013-08-08 00:43:00,58.0,51.0,30.08,SSE,164,10.0,10.0,77,0.00,,,0.00,,2013-08-08 05:43:00,
2013-08-08 00:52:00,57.0,51.0,30.08,SSE,164,10.0,10.0,79,0.00,,,0.00,,2013-08-08 05:52:00,
2013-08-08 01:01:00,57.0,51.0,30.08,SSE,164,10.0,10.0,79,0.00,,,0.00,,2013-08-08 06:01:00,
2013-08-08 01:12:00,57.0,51.0,30.08,SSE,164,10.0,10.0,79,0.00,,,0.00,,2013-08-08 06:12:00,
2013-08-08 01:22:00,57.0,51.0,30.08,SSE,164,10.0,10.0,79,0.00,,,0.00,,2013-08-08 06:22:00,
2013-08-08 01:32:00,56.0,50.0,30.08,SSE,164,10.0,10.0,81,0.00,,,0.00,,2013-08-08 06:32:00,
2013-08-08 01:43:00,56.0,50.0,30.08,SSE,164,10.0,10.0,81,0.00,,,0.00,,2013-08-08 06:43:00,
2013-08-08 01:52:00,56.0,51.0,30.08,SSE,164,10.0,10.0,83,0.00,,,0.00,,2013-08-08 06:52:00,
2013-08-08 02:01:00,56.0,51.0,30.08,SSE,164,10.0,10.0,83,0.00,,,0.00,,2013-08-08 07:01:00,
2013-08-08 02:12:00,56.0,51.0,30.08,SSE,164,10.0,10.0,84,0.00,,,0.00,,2013-08-08 07:12:00,
2013-08-08 02:22:00,56.0,51.0,30.08,SSE,164,10.0,10.0,84,0.00,,,0.00,,2013-08-08 07:22:00,
2013-08-08 02:32:00,55.0,50.0,30.08,SSE,164,10.0,10.0,84,0.00,,,0.00,,2013-08-08 07:32:00,
2013-08-08 02:43:00,55.0,50.0,30.08,SSE,164,10.0,10.0,84,0.00,,,0.00,,2013-08-08 07:43:00,
2013-08-08 02:53:00,55.0,51.0,30.08,SSE,164,10.0,10.0,85,0.00,,,0.00,,2013-08-08 07:53:00,
2013-08-08 03:02:00,55.0,51.0,30.08,SSE,164,10.0,10.0,85,0.00,,,0.00,,2013-08-08 08:02:00,
2013-08-08 03:11:00,55.0,51.0,30.08,SSE,164,10.0,10.0,85,0.00,,,0.00,,2013-08-08 08:11:00,
2013-08-08 03:22:00,54.0,50.0,30.08,SSE,164,10.0,10.0,86,0.00,,,0.00,,2013-08-08 08:22:00,
2013-08-08 03:32:00,54.0,50.0,30.08,SSE,164,10.0,10.0,87,0.00,,,0.00,,2013-08-08 08:32:00,
2013-08-08 03:43:00,54.0,50.0,30.08,SSE,164,10.0,10.0,87,0.00,,,0.00,,2013-08-08 08:43:00,
2013-08-08 03:53:00,54.0,50.0,30.08,SSE,164,10.0,10.0,87,0.00,,,0.00,,2013-08-08 08:53:00,
2013-08-08 04:01:00,54.0,50.0,30.08,SSE,164,10.0,10.0,87,0.00,,,0.00,,2013-08-08 09:01:00,
2013-08-08 04:12:00,54.0,51.0,30.05,SSE,164,10.0,10.0,88,0.00,,,0.00,,2013-08-08 09:12:00,
2013-08-08 04:22:00,54.0,51.0,30.05,SSE,164,10.0,10.0,89,0.00,,,0.00,,2013-08-08 09:22:00,
2013-08-08 04:32:00,54.0,51.0,30.05,SSE,164,10.0,10.0,90,0.00,,,0.00,,2013-08-08 09:32:00,
2013-08-08 04:43:00,54.0,51.0,30.05,SSE,164,10.0,10.0,89,0.00,,,0.00,,2013-08-08 09:43:00,
2013-08-08 04:53:00,53.0,50.0,30.05,SSE,164,10.0,10.0,90,0.00,,,0.00,,2013-08-08 09:53:00,
2013-08-08 05:01:00,53.0,50.0,30.05,SSE,164,10.0,10.0,90,0.00,,,0.00,,2013-08-08 10:01:00,
2013-08-08 05:12:00,53.0,50.0,30.05,SSE,164,10.0,10.0,91,0.00,,,0.00,,2013-08-08 10:12:00,
2013-08-08 05:22:00,53.0,50.0,30.05,SSE,164,10.0,10.0,91,0.00,,,0.00,,2013-08-08 10:22:00,
2013-08-08 05:32:00,53.0,50.0,30.05,SSE,164,10.0,10.0,91,0.00,,,0.00,,2013-08-08 10:32:00,
2013-08-08 05:43:00,53.0,50.0,30.05,SSE,164,10.0,10.0,91,0.00,,,0.00,,2013-08-08 10:43:00,
2013-08-08 05:52:00,53.0,50.0,30.05,SSE,164,10.0,10.0,91,0.00,,,0.00,,2013-08-08 10:52:00,
2013-08-08 06:02:00,53.0,50.0,30.05,SSE,164,10.0,10.0,91,0.00,,,0.00,,2013-08-08 11:02:00,
2013-08-08 06:11:00,53.0,50.0,30.05,SSE,164,10.0,10.0,91,0.00,,,0.00,,2013-08-08 11:11:00,
2013-08-08 06:22:00,53.0,50.0,30.05,SSE,164,10.0,10.0,91,0.00,,,0.00,,2013-08-08 11:22:00,
2013-08-08 06:32:00,53.0,50.0,30.05,SSE,164,10.0,10.0,91,0.00,,,0.00,,2013-08-08 11:32:00,
2013-08-08 06:43:00,53.0,50.0,30.05,SSE,164,10.0,10.0,91,0.00,,,0.00,,2013-08-08 11:43:00,
2013-08-08 06:52:00,53.0,51.0,30.05,SSE,164,10.0,10.0,92,0.00,,,0.00,,2013-08-08 11:52:00,
2013-08-08 07:01:00,53.0,51.0,30.05,SSE,164,10.0,10.0,92,0.00,,,0.00,,2013-08-08 12:01:00,
2013-08-08 07:11:00,53.0,51.0,30.05,SSE,164,10.0,10.0,92,0.00,,,0.00,,2013-08-08 12:11:00,
2013-08-08 07:21:00,53.0,51.0,30.08,SSE,164,10.0,10.0,92,0.00,,,0.00,,2013-08-08 12:21:00,
2013-08-08 07:32:00,54.0,52.0,30.08,SSE,164,10.0,10.0,92,0.00,,,0.00,,2013-08-08 12:32:00,
2013-08-08 07:43:00,55.0,53.0,30.08,SSE,164,10.0,10.0,92,0.00,,,0.00,,2013-08-08 12:43:00,
2013-08-08 07:52:00,56.0,54.0,30.08,SSE,164,10.0,10.0,92,0.00,,,0.00,,2013-08-08 12:52:00,
2013-08-08 08:01:00,57.0,55.0,30.08,SSE,164,10.0,10.0,92,0.00,,,0.00,,2013-08-08 13:01:00,
2013-08-08 08:11:00,57.0,55.0,30.08,SSE,164,10.0,10.0,92,0.00,,,0.00,,2013-08-08 13:11:00,
2013-08-08 08:22:00,59.0,53.0,30.08,SSE,164,10.0,10.0,81,0.00,,,0.00,,2013-08-08 13:22:00,
2013-08-08 08:32:00,60.0,50.0,30.08,SSE,164,10.0,10.0,70,0.00,,,0.00,,2013-08-08 13:32:00,
2013-08-08 08:43:00,63.0,45.0,30.08,ESE,119,4.0,4.0,52,0.00,,,0.00,,2013-08-08 13:43:00,
2013-08-08 08:52:00,64.0,47.0,30.08,SE,144,0.0,5.0,54,0.00,,,0.00,,2013-08-08 13:52:00,
2013-08-08 09:02:00,64.0,47.0,30.08,SE,144,0.0,5.0,54,0.00,,,0.00,,2013-08-08 14:02:00,
2013-08-08 09:11:00,66.0,47.0,30.05,ESE,123,6.0,6.0,51,0.00,,,0.00,,2013-08-08 14:11:00,
2013-08-08 09:22:00,67.0,47.0,30.05,East,99,8.0,8.0,49,0.00,,,0.00,,2013-08-08 14:22:00,
2013-08-08 09:32:00,67.0,47.0,30.05,East,99,8.0,8.0,49,0.00,,,0.00,,2013-08-08 14:32:00,
2013-08-08 09:53:00,70.0,46.0,30.08,East,99,4.0,4.0,43,0.00,,,0.00,,2013-08-08 14:53:00,
2013-08-08 12:02:00,70.0,49.0,30.11,WSW,238,0.0,0.0,47,0.00,,,0.00,,2013-08-08 17:02:00,
2013-08-08 12:11:00,70.0,49.0,30.11,WSW,249,0.0,0.0,48,0.00,,,0.00,,2013-08-08 17:11:00,
2013-08-08 12:21:00,70.0,50.0,30.11,WSW,249,0.0,0.0,49,0.00,,,0.00,,2013-08-08 17:21:00,
2013-08-08 12:32:00,71.0,49.0,30.11,WSW,251,5.0,5.0,46,0.00,,,0.00,,2013-08-08 17:32:00,
2013-08-08 12:52:00,72.0,49.0,30.08,WSW,237,6.0,6.0,45,0.00,,,0.00,,2013-08-08 17:52:00,
2013-08-08 13:01:00,71.0,49.0,30.08,SW,215,0.0,0.0,46,0.00,,,0.00,,2013-08-08 18:01:00,
2013-08-08 16:14:00,78.0,47.0,30.05,SSW,213,0.0,0.0,34,0.00,,,0.00,,2013-08-08 21:14:00,
2013-08-08 16:24:00,79.0,47.0,30.05,SW,230,0.0,0.0,33,0.00,,,0.00,,2013-08-08 21:24:00,
2013-08-08 19:34:00,74.0,48.0,30.02,South,186,0.0,0.0,40,0.00,,,0.00,,2013-08-09 00:34:00,
2013-08-08 19:45:00,74.0,49.0,30.02,South,186,0.0,0.0,41,0.00,,,0.00,,2013-08-09 00:45:00,
2013-08-08 19:53:00,74.0,49.0,30.02,South,186,0.0,0.0,41,0.00,,,0.00,,2013-08-09 00:53:00,
2013-08-08 20:14:00,73.0,48.0,30.02,SSW,208,0.0,0.0,41,0.00,,,0.00,,2013-08-09 01:14:00,
2013-08-08 20:24:00,71.0,49.0,30.02,SSW,208,0.0,0.0,45,0.00,,,0.00,,2013-08-09 01:24:00,
2013-08-08 20:35:00,70.0,49.0,30.02,SSW,208,0.0,0.0,48,0.00,,,0.00,,2013-08-09 01:35:00,
2013-08-08 20:59:00,70.0,53.0,30.05,SW,215,0.0,0.0,55,0.00,,,0.00,,2013-08-09 01:59:00,
2013-08-08 21:13:00,69.0,53.0,30.02,SSW,213,0.0,0.0,56,0.00,,,0.00,,2013-08-09 02:13:00,
2013-08-08 21:46:00,69.0,53.0,30.02,SSW,213,0.0,0.0,57,0.00,,,0.00,,2013-08-09 02:46:00,
2013-08-08 21:55:00,69.0,53.0,30.02,SSW,213,0.0,0.0,57,0.00,,,0.00,,2013-08-09 02:55:00,
2013-08-08 22:06:00,69.0,53.0,30.02,SSW,213,0.0,0.0,57,0.00,,,0.00,,2013-08-09 03:06:00,
2013-08-08 22:15:00,69.0,54.0,30.02,SSW,213,0.0,0.0,59,0.00,,,0.00,,2013-08-09 03:15:00,
2013-08-08 22:23:00,69.0,54.0,30.02,SSW,213,0.0,0.0,59,0.00,,,0.00,,2013-08-09 03:23:00,
2013-08-08 22:34:00,69.0,54.0,30.02,SSW,213,0.0,0.0,59,0.00,,,0.00,,2013-08-09 03:34:00,
2013-08-08 22:45:00,68.0,55.0,30.02,SSW,213,0.0,0.0,64,0.00,,,0.00,,2013-08-09 03:45:00,
2013-08-08 22:52:00,69.0,56.0,30.02,SSW,213,0.0,0.0,63,0.00,,,0.00,,2013-08-09 03:52:00,
2013-08-08 23:01:00,69.0,55.0,30.02,SSW,213,0.0,0.0,60,0.00,,,0.00,,2013-08-09 04:01:00,
2013-08-08 23:12:00,69.0,55.0,30.02,SSW,213,0.0,0.0,61,0.00,,,0.00,,2013-08-09 04:12:00,
2013-08-08 23:22:00,68.0,54.0,30.02,SSW,213,0.0,0.0,62,0.00,,,0.00,,2013-08-09 04:22:00,
2013-08-08 23:33:00,68.0,54.0,30.02,SSW,213,0.0,0.0,62,0.00,,,0.00,,2013-08-09 04:33:00,
2013-08-08 23:43:00,67.0,54.0,30.02,SSW,213,0.0,0.0,62,0.00,,,0.00,,2013-08-09 04:43:00,
2013-08-08 23:53:00,67.0,55.0,30.02,SSW,213,0.0,0.0,65,0.00,,,0.00,,2013-08-09 04:53:00,